Content
SEND FEEDBACK

Daily
Averages
Monthly
Summary
United States of America

DUNSMUIR, CALIFORNIA


Home > North America > United States > California
Elevation: 3289 feet     Latitude: 41 12N     Longitude: 122 16W

WEATHER
 
SELECT A DAY
Number of Records: 231,561;   Date Range: 1/1/95 - 9/16/14
 
SHARE

PRINT THIS DATA

[ ← Previous Day ]
WEATHER ALMANAC - JANUARY 3, 2013
[ Next Day → ]
[ °C ]   °F
Weather ElementAverageHighLow
Temperature27.3 °F43 °F (12:56 pm)12.9 °F (6:56 am)
Dewpoint18.1 °F25 °F (5:56 pm)8.1 °F (5:56 am)
Humidity71 %86 % (10:33 pm)38 % (12:56 pm)
Barometer30.33 in30.40 in (7:56 pm)30.27 in (10:19 pm)
Wind Speed0.1 mph3.5 mph (5:56 am)
Weather ElementAverage
Visibility6.5 mi
Wind DirectionN (1.9 °)

Weather ElementTotal
Precipitation---
Heating Degree Days37.1 (Base 65)
Averaged from 26 records on January 3, 2013
WEATHER CONDITIONS BREAKOUT
WIND DIRECTION BREAKOUT
WEATHER BY HOUR - JANUARY 3, 2013
[ °C ]   °F
Local TimeTemperatureDewpointHumidityBarometerVisibilityWind DirectionWind SpeedGust SpeedPrecipitationEventsConditions
1:56 AM16.0 °F10.9 °F81 %30.29 in6.0 miCalmHaze
2:56 AM17.1 °F10.9 °F77 %30.30 in5.0 miCalmHaze
3:56 AM16.0 °F10.9 °F81 %30.30 in10.0 miCalmClear
4:56 AM15.1 °F9.0 °F77 %30.30 in9.0 miCalmClear
5:56 AM14.0 °F8.1 °F77 %30.30 in7.0 miNE (50°)3.5 mphClear
6:56 AM12.9 °F9.0 °F84 %30.33 in6.0 miCalmClear
7:56 AM15.1 °F9.0 °F77 %30.34 in6.0 miCalmHaze
8:56 AM21.0 °F15.1 °F78 %30.35 in5.0 miCalmHaze
9:56 AM28.9 °F23.0 °F78 %30.34 in5.0 miCalmHaze
10:56 AM34.0 °F21.9 °F61 %30.33 in10.0 miCalmMostly Cloudy
11:56 AM41.0 °F19.0 °F41 %30.29 in10.0 miCalmMostly Cloudy
12:56 PM43.0 °F19.0 °F38 %30.28 in10.0 miCalmOvercast
1:56 PM43.0 °F19.9 °F40 %30.29 in10.0 miCalmOvercast
2:56 PM43.0 °F21.0 °F42 %30.30 in10.0 miCalmOvercast
3:56 PM41.0 °F23.0 °F49 %30.32 in10.0 miCalmOvercast
4:56 PM37.0 °F23.0 °F57 %30.36 in10.0 miCalmMostly Cloudy
5:56 PM35.1 °F25.0 °F67 %30.37 in4.0 miCalmHaze
6:56 PM30.9 °F25.0 °F79 %30.39 in4.0 miCalmHaze
7:56 PM28.9 °F24.1 °F82 %30.40 in6.0 miCalmHaze
8:56 PM27.0 °F21.9 °F81 %30.40 in4.0 miCalmHaze
9:56 PM25.0 °F21.0 °F85 %30.40 in2.5 miCalmClear
10:19 PM26.6 °F21.2 °F80 %30.27 in4.0 miCalmHaze
10:33 PM24.8 °F21.2 °F86 %30.27 in2.5 miCalmClear
10:41 PM24.8 °F19.4 °F80 %30.27 in3.0 miCalmHaze
10:56 PM24.1 °F19.9 °F84 %30.40 in4.0 miCalmClear
11:56 PM24.1 °F19.9 °F84 %30.38 in5.0 miCalmClear
Hourly data recorded from KMHS, located miles away from Dunsmuir, California







STORIES FROM OUR PARTNERS